Regional Weather Roundup
Issued by NWS Cleveland, OH

Home | Current Version | Previous Version | Graphics & Text | Print | Product List | Glossary On
Versions: 1 2 3 4 5 6 7 8 9 10 11 12 13 14 15 16 17 18 19 20 21 22 23 24 25 26 27 28 29 30 31 32 33 34 35 36 37 38 39 40 41 42 43 44 45 46 47 48 49 50
000
ASUS41 KCLE 050610
RWRCLE
OHIO REGIONAL WEATHER ROUNDUP
NATIONAL WEATHER SERVICE WILMINGTON, OH
200 AM EDT WED AUG 05 2015

NOTE: "FAIR" INDICATES FEW OR NO CLOUDS BELOW 12,000 FEET WITH NO
SIGNIFICANT WEATHER AND/OR OBSTRUCTIONS TO VISIBILITY.

OHZ001>008-015>018-024>027-034-035-043-044-050700-
   NORTHWEST OHIO

CITY           SKY/WX    TMP DP  RH WIND       PRES   REMARKS
DEFIANCE       PTCLDY    64  58  80 CALM      30.02F
FINDLAY        CLEAR     61  58  90 SW3       30.01F
TOLEDO EXPRESS CLEAR     63  56  78 NW5       30.00F
TOLEDO EXEC    CLEAR     64  55  72 NW6       30.01F
LIMA           CLEAR     60  57  89 CALM      30.03F
$$

OHZ009>014-019>023-028>033-038-089-050700-
   NORTHEAST OHIO

CITY           SKY/WX    TMP DP  RH WIND       PRES   REMARKS
CLE-HOPKINS    PTCLDY    63  58  83 W6        30.01S
CLE-LAKEFRONT  CLEAR     74  59  59 NW14      29.97S
CUY CO. ARPT   NOT AVBL
LORAIN-ELYRIA  CLEAR     63  58  83 W5        30.00F
ASHTABULA      CLEAR     60  58  92 CALM      29.98F
AKRON-CANTON   PTCLDY    65  56  72 W5        30.01S
WOOSTER        CLEAR     59  56  89 W5        30.02F
MANSFIELD      CLEAR     65  58  78 W5        30.02F
YOUNGSTOWN     MOCLDY    60  55  83 SW5       29.99F
$$

OHZ042-051>053-060>062-070>072-077>081-050700-
  SOUTHWEST OHIO

CITY           SKY/WX    TMP DP  RH WIND       PRES   REMARKS
CINC-COVINGTON CLOUDY    70  62  76 NW5       30.02R
CINC-LUNKEN    CLOUDY    66  66 100 S3        30.02S
HAMILTON       CLOUDY    70  64  81 N5        30.02F
DAYTON         MOCLDY    67  59  75 NW5       30.04S
WRIGHT-PAT AFB CLOUDY    66  61  82 CALM      30.03S
DAYTON GENERAL CLOUDY    69  59  70 N5        30.03S
WILMINGTON     CLOUDY    69  60  73 N7        30.03S
$$

OHZ036-037-039>041-045>050-054>059-063>069-073>076-082>088-050700-
  CENTRAL AND SOUTHEAST OHIO

CITY           SKY/WX    TMP DP  RH WIND       PRES   REMARKS
COLUMBUS       CLOUDY    69  58  67 CALM      30.01F
OSU AIRPORT    MOCLDY    67  59  75 W5        30.02F
BOLTON FIELD   MOCLDY    62  61  96 CALM      30.03S
RICKENBACK AFB CLOUDY    63  60  90 S3        30.01F
NEWARK         MOCLDY    61  59  93 CALM      30.01F
MARION         CLEAR     64  59  83 NW5       30.02F
LANCASTER      CLOUDY    61  58  90 CALM      30.02F
ZANESVILLE     CLOUDY    63  59  87 CALM      30.02F
NEW PHILLY     PTCLDY    60  59  96 CALM      30.01F
$$


USA.gov is the U.S. government's official web portal to all federal, state and local government web resources and services.